CAPE
0 0 0 0 0 0 0 0 0 0 0 0 0 2 1 252 524 527 591 535 412 478 471 423 220 300 347 687 1007 1086 1043 727 779 879 935 681 667 679 522 1189 736 991 1120 1072
0 0 0 0 0 0 0 0 0 0 0 0 4 1 0 19 84 219 297 376 396 354 370 389 292 353 341 582 888 1113 955 836 816 811 795 718 737 805 528 1172 909 809 788 755
0 0 0 0 0 0 0 0 0 0 0 0 4 25 5 0 5 18 82 110 207 138 221 294 394 329 424 573 679 758 934 1042 967 961 765 864 799 748 964 1064 947 904 1007 938
0 0 0 0 0 0 0 0 0 0 0 0 1 0 18 0 0 0 13 36 88 78 48 102 351 323 364 491 578 641 819 1119 1181 1183 1052 986 882 739 994 984 989 1145 1191 1051
0 0 0 0 0 0 0 0 0 0 0 0 0 0 0 8 0 0 0 9 89 42 40 11 199 321 326 414 582 579 537 1123 1233 1326 1224 1103 1070 870 751 830 958 1067 1272 1369
0 0 0 0 0 0 0 0 0 0 0 0 0 0 0 0 0 0 0 1 10 37 26 4 70 181 275 366 580 655 594 680 1146 1332 1381 1324 1194 990 711 661 867 1132 1341 1317
0 0 0 0 0 0 0 0 0 0 0 0 0 0 0 0 0 0 6 7 0 3 37 1 4 95 143 259 520 788 754 665 900 1260 1270 1255 1169 1053 797 597 903 1261 1293 1213
0 0 0 0 0 0 0 0 0 0 0 0 0 0 0 0 0 0 16 7 0 0 7 15 10 70 83 215 520 783 905 829 978 1047 1199 1278 1247 1085 897 705 896 996 1147 1413
0 0 0 0 0 0 0 0 0 0 0 0 0 0 0 0 0 0 4 15 0 0 0 0 34 68 145 240 494 753 1037 999 1096 1195 1066 1227 1326 1209 1079 1037 1161 924 1067 1147
0 0 0 0 0 0 0 0 0 0 0 0 0 0 0 0 0 0 1 10 9 1 0 0 1 108 258 236 548 888 1095 1089 1236 1363 1315 1234 1313 1440 1319 1149 1177 1357 1221 1167
0 0 0 0 0 0 0 0 0 0 0 0 0 0 0 0 0 0 0 15 28 19 16 0 9 98 258 367 736 1015 1208 1220 1439 1612 1558 1572 1458 1341 1548 1468 1396 1280 1185 975
0 0 0 0 0 0 0 0 0 0 0 0 0 0 0 0 0 0 0 6 140 127 34 40 22 71 266 524 858 1000 1433 1403 1483 1697 1785 1703 1785 1742 1418 1370 1380 1408 1331 1160
0 0 0 0 0 0 0 0 0 0 0 0 0 0 0 0 0 0 0 2 19 27 10 1 46 91 295 550 779 1156 1418 1639 1817 1852 1965 2064 2007 2013 1740 1472 1556 1438 1326 1049
0 0 0 0 0 0 0 0 0 0 0 0 0 0 0 0 0 0 0 1 56 38 4 0 62 134 425 624 813 1209 1387 1941 1961 2215 2153 2129 2183 2154 2102 1814 1567 1547 1499 1249
0 0 0 0 0 0 0 0 0 0 0 0 0 0 0 0 0 0 0 5 56 101 0 0 39 220 509 786 880 1164 1521 1804 2126 2242 2390 2266 2287 2415 2410 2202 1846 1745 1845 1448
0 0 0 0 0 0 0 0 0 0 0 0 0 0 0 0 0 0 0 0 2 7 0 21 86 285 505 822 915 1068 1462 2012 2201 2375 2375 2473 2532 2584 2566 2597 2446 1988 1962 2078
0 0 0 0 0 0 0 0 0 0 0 0 0 0 0 0 0 0 0 0 0 0 0 81 227 428 605 889 1012 1053 1440 1958 2383 2389 2615 2725 2619 2612 2643 2702 2715 2609 2229 2091
0 0 0 0 0 0 0 0 0 0 0 0 0 0 0 0 0 0 0 0 0 0 4 91 427 542 740 934 1099 1177 1321 1784 2301 2412 2594 2862 2797 2637 2683 2737 2748 2733 2729 2395
0 0 0 0 0 0 0 0 0 0 0 0 0 0 0 0 0 0 0 0 0 0 0 74 459 658 631 822 1035 1267 1365 1591 1879 2249 2413 2641 2768 2623 2705 2670 2782 2710 2787 2644
0 0 0 0 0 0 0 0 1 0 21 161 0 0 0 0 0 0 0 9 0 0 0 0 0 33 491 677 851 1016 1261 1511 1654 1907 2173 2495 2666 2593 2583 2714 2757 2785 2810 2808
0 4 0 0 0 0 3 16 81 12 48 141 42 3 0 0 0 0 0 133 213 78 0 0 0 0 3 527 865 815 975 1222 1463 1731 1982 2223 2587 2605 2594 2770 2824 2898 2765 2740
0 31 12 0 0 58 0 72 53 180 696 384 298 231 113 234 270 594 272 402 407 155 244 399 12 0 0 84 599 744 810 931 1246 1528 1727 1758 2309 2522 2750 2850 2792 2695 2531 2476
9 6 0 0 0 0 0 49 711 745 578 541 403 394 273 282 480 952 1250 1562 1702 1548 1303 1355 795 330 279 363 803 762 916 1041 1073 1229 1498 1773 2240 2593 2697 2639 2621 2281 2179 1886
7 22 17 0 0 0 436 516 300 319 389 347 304 273 270 275 655 789 930 1016 1138 1340 1464 1344 1901 2417 1339 1138 1104 1335 1152 1233 1367 1792 2343 2486 2381 2358 2396 2150 2046 1707 1741 1599
54 3 66 0 0 0 94 186 51 12 42 90 144 257 284 273 247 452 645 717 804 585 207 79 82 316 755 2194 2349 2462 2312 2537 2408 2337 2390 2231 1785 1999 1409 675 753 974 651 1028
1 63 123 4 0 0 0 0 0 0 0 0 0 0 0 28 55 59 60 2 0 0 0 0 0 0 0 67 561 3326 3090 2644 2327 2137 2168 2058 1187 672 474 281 40 0 15 300
CIN
-0 -0 -0 -0 -0 -0 -0 -0 -0 -0 -0 -0 -0 -63 -143 -181 -143 -148 -182 -180 -148 -103 -143 -162 -164 -118 -155 -156 -132 -117 -118 -140 -123 -100 -82 -85 -70 -40 -62 -40 -48 -34 -33 -41
-0 -0 -0 -0 -0 -0 -0 -0 -0 -0 -0 -0 -74 -53 -0 -140 -202 -186 -212 -202 -192 -123 -128 -147 -168 -145 -173 -160 -145 -139 -158 -161 -152 -133 -116 -108 -86 -74 -72 -43 -44 -34 -36 -40
-0 -0 -0 -0 -0 -0 -0 -0 -0 -0 -0 -0 -31 -73 -121 -0 -84 -181 -201 -230 -239 -176 -184 -153 -134 -183 -156 -159 -178 -199 -206 -172 -181 -155 -132 -95 -87 -88 -52 -37 -40 -38 -40 -37
-0 -0 -0 -0 -0 -0 -0 -0 -0 -0 -0 -0 -8 -0 -61 -0 -0 -0 -225 -266 -294 -281 -267 -229 -186 -191 -216 -210 -200 -205 -220 -183 -175 -151 -131 -118 -114 -126 -78 -56 -34 -30 -35 -45
-0 -0 -0 -0 -0 -0 -0 -0 -0 -0 -0 -0 -0 -0 -0 -75 -0 -0 -0 -70 -279 -315 -337 -120 -262 -265 -266 -250 -243 -225 -245 -187 -176 -149 -154 -139 -113 -131 -123 -79 -40 -36 -40 -47
-0 -0 -0 -0 -0 -0 -0 -0 -0 -0 -0 -0 -0 -0 -0 -0 -0 -0 -31 -67 -233 -273 -358 -101 -287 -308 -304 -297 -273 -276 -276 -241 -205 -169 -144 -131 -139 -139 -148 -128 -72 -40 -48 -38
-0 -0 -0 -0 -0 -0 -0 -0 -0 -0 -0 -0 -0 -0 -0 -0 -0 -0 -116 -131 -0 -73 -287 -121 -76 -329 -362 -378 -373 -341 -316 -275 -237 -201 -186 -182 -178 -154 -164 -158 -90 -49 -58 -64
-0 -0 -0 -0 -0 -0 -0 -0 -0 -0 -0 -0 -0 -0 -0 -0 -0 -0 -95 -126 -0 -0 -289 -289 -277 -319 -373 -409 -427 -395 -353 -300 -262 -229 -211 -204 -184 -169 -167 -168 -121 -112 -89 -73
-0 -0 -0 -0 -0 -0 -0 -0 -0 -0 -0 -0 -0 -0 -0 -0 -0 -0 -82 -161 -0 -0 -0 -0 -296 -307 -374 -417 -468 -462 -383 -330 -298 -258 -255 -228 -178 -161 -158 -155 -117 -136 -115 -117
-0 -0 -0 -0 -0 -0 -0 -0 -0 -0 -0 -0 -0 -0 -0 -0 -0 -0 -60 -138 -148 -93 -0 -0 -178 -357 -410 -416 -459 -476 -417 -369 -332 -294 -281 -265 -211 -161 -131 -132 -135 -114 -128 -144
-0 -0 -0 -0 -0 -0 -0 -0 -0 -0 -0 -0 -0 -0 -0 -0 -0 -0 -0 -109 -145 -187 -191 -43 -272 -350 -386 -421 -484 -462 -440 -376 -338 -304 -276 -257 -237 -203 -132 -121 -140 -140 -140 -172
-0 -0 -0 -0 -0 -0 -0 -0 -0 -0 -0 -0 -0 -0 -0 -0 -0 -0 -0 -118 -120 -163 -180 -168 -203 -327 -355 -386 -455 -460 -443 -387 -376 -326 -273 -257 -226 -208 -200 -195 -176 -155 -153 -170
-0 -0 -0 -0 -0 -0 -0 -0 -0 -0 -0 -0 -0 -0 -0 -0 -0 -0 -0 -33 -167 -168 -182 -72 -191 -266 -314 -381 -428 -452 -463 -431 -366 -327 -298 -239 -228 -218 -230 -241 -201 -212 -182 -202
-0 -0 -0 -0 -0 -0 -0 -0 -0 -0 -0 -0 -0 -0 -0 -0 -0 -0 -0 -29 -91 -88 -15 -0 -154 -215 -314 -365 -427 -445 -463 -449 -381 -336 -297 -272 -251 -259 -247 -249 -245 -235 -210 -210
-0 -0 -0 -0 -0 -0 -0 -0 -0 -0 -0 -0 -0 -0 -0 -0 -0 -0 -0 -22 -62 -38 -0 -0 -157 -217 -283 -335 -378 -415 -440 -445 -396 -370 -348 -320 -284 -251 -225 -230 -256 -244 -197 -216
-0 -0 -0 -0 -0 -0 -0 -0 -0 -0 -0 -0 -0 -0 -0 -0 -0 -0 -0 -0 -54 -95 -14 -100 -150 -166 -228 -278 -329 -414 -436 -453 -400 -359 -373 -354 -292 -254 -240 -213 -220 -246 -228 -179
-0 -0 -0 -0 -0 -0 -0 -0 -0 -0 -0 -0 -0 -0 -0 -0 -0 -0 -0 -0 -0 -0 -4 -118 -106 -136 -173 -271 -336 -390 -406 -433 -388 -358 -338 -323 -313 -285 -265 -227 -193 -194 -208 -185
-0 -0 -0 -0 -0 -0 -0 -0 -0 -0 -0 -0 -0 -0 -0 -0 -0 -0 -0 -0 -0 -0 -12 -111 -136 -182 -168 -234 -284 -317 -401 -437 -423 -387 -348 -326 -327 -324 -275 -231 -218 -186 -137 -149
-0 -0 -0 -0 -0 -0 -0 -0 -0 -0 -0 -0 -0 -0 -0 -0 -0 -0 -0 -0 -0 -0 -0 -147 -158 -159 -231 -200 -247 -303 -365 -396 -401 -390 -364 -362 -338 -336 -291 -273 -232 -199 -135 -108
-0 -0 -0 -0 -0 -0 -0 -0 -2 -0 -37 -151 -0 -0 -0 -0 -0 -0 -0 -22 -0 -0 -0 -0 -0 -214 -132 -188 -241 -217 -291 -338 -353 -397 -410 -409 -375 -327 -322 -289 -239 -201 -161 -126
-4 -22 -0 -0 -0 -0 -107 -156 -45 -16 -61 -186 -230 -95 -0 -0 -0 -0 -0 -225 -219 -78 -0 -0 -0 -0 -26 -142 -229 -215 -242 -275 -302 -360 -403 -455 -397 -346 -317 -271 -208 -174 -155 -99
-0 -13 -8 -0 -0 -17 -0 -117 -33 -113 -222 -204 -205 -240 -203 -241 -241 -227 -238 -227 -186 -235 -205 -129 -38 -0 -0 -227 -155 -166 -223 -235 -294 -373 -412 -470 -438 -366 -280 -242 -196 -142 -125 -113
-3 -19 -0 -0 -0 -0 -0 -254 -188 -268 -244 -265 -232 -252 -259 -232 -248 -254 -234 -262 -256 -263 -235 -221 -126 -92 -181 -310 -214 -154 -173 -265 -364 -394 -427 -440 -391 -329 -295 -253 -163 -153 -156 -180
-20 -41 -6 -0 -0 -0 -30 -70 -224 -298 -277 -329 -357 -358 -339 -256 -336 -326 -333 -345 -345 -424 -430 -435 -317 -268 -116 -132 -239 -269 -272 -326 -356 -392 -398 -368 -361 -343 -278 -262 -202 -222 -189 -204
-5 -13 -10 -0 -0 -0 -94 -99 -265 -207 -381 -429 -511 -453 -423 -405 -446 -440 -417 -415 -434 -483 -582 -659 -733 -671 -546 -218 -212 -310 -386 -384 -391 -442 -354 -301 -330 -246 -366 -556 -372 -242 -314 -263
-5 -7 -0 -15 -0 -0 -0 -0 -0 -0 -0 -0 -0 -0 -206 -577 -575 -601 -559 -217 -0 -0 -0 -0 -0 -0 -0 -187 -419 -300 -334 -363 -348 -344 -321 -257 -420 -480 -506 -494 -443 -0 -241 -335
Wind_Speed
13 14 29 28 31 20 20 21 31 34 24 19 12 11 19 22 25 24 23 24 25 27 28 32 31 33 29 30 29 29 28 28 25 23 22 23 25 25 22 19 17 16 17 14
19 29 32 25 32 19 16 30 34 36 33 21 11 10 18 23 28 26 24 25 25 28 29 27 30 28 29 29 30 28 27 26 24 22 21 20 23 24 25 21 21 17 16 13
21 6 24 13 18 17 18 31 37 29 33 27 6 19 10 14 16 26 25 26 24 27 28 29 29 27 27 28 29 28 27 25 22 20 17 16 19 21 22 23 21 18 16 13
20 20 10 23 25 15 20 37 39 34 28 32 1 20 28 30 24 29 30 28 25 26 29 29 30 30 28 29 27 26 23 23 21 19 18 20 17 18 21 19 17 15 15 13
5 18 23 21 25 29 38 36 40 38 34 31 40 32 36 20 41 33 28 30 27 28 27 32 30 32 31 28 27 26 24 22 19 20 18 19 16 19 16 15 15 12 13 12
13 10 14 22 17 23 38 27 39 36 31 47 36 15 12 11 33 41 27 27 27 27 25 33 31 27 28 26 25 24 23 22 19 19 18 18 17 17 16 12 11 11 10 11
19 19 13 12 16 17 18 15 27 38 41 43 22 28 19 27 20 28 35 24 23 27 23 26 27 26 24 25 24 21 20 20 18 18 19 18 17 17 16 14 12 9 9 14
21 23 21 14 26 14 16 19 21 33 36 41 35 40 37 24 19 25 29 25 16 23 28 23 28 27 28 24 23 22 21 20 19 19 20 19 17 15 12 13 12 11 13 20
24 31 25 22 18 17 27 20 19 22 31 40 36 35 45 31 13 26 20 18 29 25 26 26 27 30 29 26 27 26 22 22 21 21 21 19 18 16 12 11 12 11 16 23
33 36 26 30 23 35 23 20 20 20 32 39 40 36 44 30 32 15 22 23 29 28 27 28 27 30 30 29 27 25 24 25 23 22 22 19 19 15 14 14 14 12 21 23
35 34 39 29 33 25 25 24 26 24 22 31 28 57 22 46 41 37 14 20 27 30 30 29 27 26 26 23 23 26 23 24 23 23 22 19 18 18 18 19 17 22 25 26
43 37 46 40 33 27 28 33 31 29 22 21 35 45 17 22 37 40 40 16 29 31 25 26 24 21 20 24 21 27 23 25 24 22 22 21 18 19 23 27 32 31 28 28
31 44 44 47 47 41 40 34 28 30 32 31 32 43 17 40 43 32 30 19 24 19 21 21 17 19 23 25 26 26 24 27 24 22 22 21 20 20 29 33 33 31 32 30
32 44 47 50 44 37 37 36 32 33 34 27 45 27 25 21 28 33 31 34 13 19 25 31 22 22 21 24 24 25 24 24 23 22 24 24 23 23 29 32 31 31 29 28
30 44 44 51 49 38 41 41 39 38 36 35 35 30 26 39 35 37 31 29 22 15 19 15 19 23 24 25 25 24 25 26 25 24 24 26 24 19 20 24 27 27 27 24
32 42 41 52 46 44 43 40 41 41 39 41 36 35 23 26 45 40 33 35 40 25 20 16 20 25 25 28 27 25 24 24 24 24 25 23 20 18 22 22 21 21 17 17
37 37 40 50 40 41 49 49 42 40 36 35 38 31 23 20 24 24 28 29 27 25 20 18 17 22 24 25 24 22 21 20 22 24 22 23 21 19 21 20 18 17 16 14
44 42 38 46 40 50 42 38 40 38 34 31 32 34 28 23 24 32 30 30 30 27 28 18 19 19 24 24 22 22 19 20 21 23 22 22 22 22 19 19 20 17 16 14
44 40 39 42 41 39 38 31 35 36 41 37 38 34 39 28 25 27 30 29 26 19 21 21 21 20 20 24 24 22 21 22 21 21 21 23 23 20 19 20 20 19 17 15
36 44 40 38 40 46 37 28 19 22 30 26 24 20 18 22 28 24 22 26 29 31 26 24 21 17 19 25 24 24 24 24 24 24 23 23 22 22 20 20 19 19 17 14
42 35 44 40 36 34 30 33 24 33 29 21 20 18 16 16 16 15 18 19 20 26 31 32 31 27 26 24 24 25 26 28 28 25 23 20 21 24 23 18 17 17 17 15
46 40 37 41 32 35 25 26 36 23 16 17 18 15 14 13 11 10 12 14 20 25 27 30 32 33 34 31 30 30 30 30 27 26 23 25 23 23 25 21 18 17 17 16
44 41 40 36 25 28 23 19 16 18 16 18 15 13 12 12 13 12 13 15 20 26 30 33 36 37 40 38 33 34 33 28 29 26 23 22 22 22 24 23 20 18 18 15
34 32 39 35 30 24 20 16 14 13 13 13 12 13 13 12 13 14 17 21 23 26 27 29 31 35 38 36 38 39 34 29 24 23 22 21 20 19 21 23 22 20 19 15
26 27 34 38 35 27 21 17 15 12 11 12 12 12 13 13 15 16 19 22 24 27 30 31 33 35 38 41 29 29 28 27 25 22 20 19 18 16 19 20 22 21 20 13
21 25 26 36 28 25 19 17 10 11 12 13 12 13 14 14 15 17 20 23 23 25 29 34 39 43 43 42 43 22 21 22 23 19 20 19 18 16 16 15 18 13 10 4
Wind_Direction
175 187 189 188 244 262 265 188 207 212 262 303 182 161 163 163 166 163 161 162 163 167 165 172 170 172 166 167 167 168 165 165 161 159 161 168 176 181 177 167 157 149 153 152
176 193 238 256 248 256 255 197 208 231 241 310 266 174 160 167 177 173 168 170 168 170 169 168 170 167 168 171 172 169 170 168 167 165 165 163 173 181 184 177 176 167 160 153
185 243 187 209 240 247 205 196 205 218 253 298 253 259 183 175 175 177 176 176 173 171 172 173 175 173 172 173 174 174 173 173 170 166 160 158 163 169 176 184 180 169 163 152
192 189 178 190 193 204 207 198 240 258 276 259 350 267 254 196 183 181 182 180 179 177 178 174 175 179 178 180 177 177 175 174 173 170 169 172 167 168 178 173 167 161 162 159
230 182 190 191 193 195 207 249 250 255 266 271 245 256 255 193 205 194 186 186 186 183 181 183 179 182 181 181 182 181 179 177 176 176 176 176 176 177 173 170 169 160 160 151
214 269 186 194 192 194 209 260 255 261 267 253 257 213 226 213 197 206 192 189 188 187 187 189 187 182 183 182 182 182 184 185 181 178 180 182 183 180 177 169 169 162 154 151
252 213 248 257 198 201 197 218 259 258 256 255 266 266 210 198 193 193 195 196 195 191 190 193 191 189 186 184 183 185 187 190 190 185 183 186 188 185 184 178 171 160 151 153
251 264 210 243 204 230 231 211 214 256 260 261 263 259 253 204 203 195 197 200 216 195 192 195 195 194 191 189 187 187 188 188 190 192 190 189 191 192 191 178 173 168 163 162
267 265 271 250 233 229 203 232 216 226 268 265 265 267 251 267 245 203 216 220 196 195 194 194 193 195 193 190 188 186 189 188 186 190 192 193 193 192 197 183 175 174 166 168
260 268 268 260 248 253 243 254 246 256 212 262 264 267 255 261 264 260 218 214 203 200 197 194 193 192 192 191 189 187 190 188 186 185 186 189 192 195 192 187 181 174 169 169
252 258 259 262 249 244 241 224 255 254 254 214 240 247 254 249 257 268 267 217 205 198 195 194 193 192 195 196 189 189 190 190 189 186 185 184 187 188 184 185 184 179 177 175
253 255 254 254 254 252 245 248 246 250 229 242 221 228 293 257 260 265 276 230 199 195 197 197 197 196 198 193 195 189 191 191 191 189 187 186 183 184 184 186 188 185 183 182
264 248 252 253 252 251 250 249 232 249 257 223 217 235 276 233 251 265 283 282 254 233 243 240 221 205 197 191 189 189 191 189 189 190 188 186 185 185 185 187 188 187 189 187
273 253 251 249 250 249 250 246 245 240 243 245 221 267 274 273 266 270 275 267 254 244 252 256 232 214 204 194 191 191 192 190 190 191 190 189 188 188 186 187 188 189 189 189
271 255 257 259 256 242 246 248 245 244 242 239 225 261 260 261 263 260 273 265 260 243 249 222 222 213 204 195 190 191 192 190 191 191 191 192 191 194 196 191 190 191 192 194
269 257 264 258 257 242 244 244 245 248 250 253 260 266 264 263 256 259 265 269 257 255 238 252 202 198 200 192 194 192 193 193 193 196 197 194 197 199 196 197 197 197 203 202
258 260 265 253 259 244 244 236 241 248 253 253 254 259 263 254 261 252 259 264 265 261 249 242 218 202 203 198 198 202 203 199 200 201 200 196 199 206 204 205 218 214 222 243
253 258 258 254 257 238 246 241 242 247 254 260 261 260 255 252 256 259 257 261 266 260 261 231 230 216 209 216 212 207 211 210 205 202 202 201 197 203 215 215 219 229 236 238
248 250 251 248 252 253 243 251 239 244 253 259 263 266 257 256 261 266 257 255 254 258 263 255 243 220 231 221 225 229 224 216 215 212 212 207 207 210 214 219 223 236 243 245
254 239 240 249 249 246 247 250 245 247 247 256 256 260 263 250 248 262 272 260 254 259 257 252 253 246 236 233 223 221 220 219 220 219 219 215 216 223 225 222 229 237 239 244
239 238 236 240 247 250 258 255 251 240 242 249 255 260 259 262 265 265 275 270 266 263 263 262 257 247 249 238 229 229 227 223 223 222 220 231 224 227 231 233 233 234 242 252
230 230 228 228 247 240 283 257 240 237 242 242 253 262 263 271 282 288 288 280 276 273 271 269 265 260 256 247 238 239 236 228 229 236 236 243 236 233 235 229 230 236 241 246
231 230 227 230 239 272 263 270 258 239 234 248 253 263 271 276 284 293 294 297 286 281 277 277 275 271 268 261 250 243 239 241 245 242 237 235 236 233 228 228 229 239 241 245
234 234 233 235 239 278 275 267 262 250 244 249 261 269 279 285 295 300 299 291 290 290 289 290 288 283 278 274 260 255 245 234 227 229 234 233 230 225 227 233 235 236 236 241
238 232 236 234 237 273 271 272 259 259 260 265 270 277 285 293 300 303 301 301 298 295 293 293 292 290 287 286 266 251 240 233 224 222 229 232 234 230 231 240 248 244 252 239
247 231 239 229 228 245 256 256 274 271 274 277 277 278 289 300 301 308 307 307 311 307 304 297 295 292 293 287 283 244 225 214 218 222 221 230 234 235 237 242 257 264 267 195